EW7837 Weather Reports


time (UTC)temp
C
wind
direction
speed
KPH
gust
KPH
rain 1hr
cm
rain 24hr
cm
rain mn
cm
humidity
%
barometer
mb
20260901050011 21 259 0.0 0.0 0.00 0.00 0.00 83 1010.4
20260901044509 21 259 0.0 0.0 0.00 0.00 0.00 82 1010.3
20260901043057 22 259 0.0 0.0 0.00 0.00 0.00 81 1010.2
20260901041550 22 259 0.0 0.0 0.00 0.00 0.00 81 1010.3
20260901040050 22 259 0.0 0.0 0.00 0.00 0.00 82 1010.1
20260901034534 22 259 0.0 0.0 0.00 0.00 0.00 81 1010.0
20260901033029 22 259 0.0 0.0 0.00 0.00 0.00 81 1009.8
20260901031628 22 259 0.0 0.0 0.00 0.00 0.00 80 1009.6
20260901030043 23 259 0.0 0.0 0.00 0.00 0.00 80 1009.4
20260901024518 23 259 0.0 0.0 0.00 0.00 0.00 79 1009.1
20260901023008 23 259 0.0 0.0 0.00 0.00 0.00 78 1009.0
20260901021506 23 259 0.0 0.0 0.00 0.00 0.00 77 1009.0
20260901020005 24 259 0.0 0.0 0.00 0.00 0.00 74 1008.9
20260901014506 25 259 0.0 0.0 0.00 0.00 0.00 73 1008.8
20260901013005 26 259 0.0 0.0 0.00 0.00 0.00 72 1008.8
20260901011502 26 261 0.0 0.0 0.00 0.00 0.00 72 1008.9
20260901010002 26 197 0.0 0.0 0.00 0.00 0.00 71 1008.9
20260901004501 26 254 0.0 0.0 0.00 0.00 0.00 69 1008.9
20260901003005 27 258 0.0 0.0 0.00 0.00 0.00 69 1008.9
20260901001559 27 262 0.0 0.0 0.00 0.00 0.00 68 1009.0
20260901000112 27 258 0.0 0.0 0.00 0.00 0.00 66 1009.0
20260831234603 27 252 0.0 0.0 0.00 0.00 0.00 66 1009.1
20260831233057 27 267 0.0 0.0 0.00 0.00 0.00 65 1009.2
20260831231556 27 259 0.0 0.0 0.00 0.00 0.00 66 1009.2
20260831230054 27 271 0.0 0.0 0.00 0.00 0.00 66 1009.4
20260831224555 27 257 0.0 0.0 0.00 0.00 0.00 68 1009.5
20260831223058 27 196 0.0 0.0 0.00 0.00 0.00 68 1009.7
20260831221550 27 236 0.0 0.0 0.00 0.00 0.00 68 1010.0
20260831220050 27 258 0.0 0.0 0.00 0.00 0.00 69 1009.9
20260831214553 27 274 1.6 0.0 0.00 0.00 0.00 68 1009.7
20260831213056 27 269 0.0 0.0 0.00 0.00 0.00 66 1009.9
20260831211546 27 273 0.0 0.0 0.00 0.00 0.00 67 1010.0
20260831210044 27 264 0.0 0.0 0.00 0.00 0.00 68 1010.1
20260831204544 27 279 1.6 0.0 0.00 0.00 0.00 68 1010.2
20260831203042 27 265 0.0 0.0 0.00 0.00 0.00 69 1010.3
20260831201539 27 246 0.0 0.0 0.00 0.00 0.00 69 1010.2
20260831200039 27 267 0.0 0.0 0.00 0.00 0.00 68 1010.3
20260831194609 27 266 0.0 0.0 0.00 0.00 0.00 69 1010.5
20260831193037 27 264 0.0 0.0 0.00 0.00 0.00 70 1010.5
20260831191534 27 262 0.0 0.0 0.00 0.00 0.00 69 1010.5
20260831190032 27 264 0.0 0.0 0.00 0.00 0.00 69 1010.5
20260831184528 26 274 0.0 0.0 0.00 0.00 0.00 70 1010.5
20260831183027 27 274 0.0 0.0 0.00 0.00 0.00 70 1010.5
20260831181524 27 292 0.0 0.0 0.00 0.00 0.00 70 1010.5
20260831180019 27 252 0.0 0.0 0.00 0.00 0.00 68 1010.3
20260831174524 27 251 0.0 0.0 0.00 0.00 0.00 69 1010.1
20260831173012 27 251 0.0 0.0 0.00 0.00 0.00 69 1010.2
20260831171510 27 251 0.0 0.0 0.00 0.00 0.00 70 1010.1
20260831170039 27 251 0.0 0.0 0.00 0.00 0.00 70 1010.0
20260831164539 26 251 0.0 0.0 0.00 0.00 0.00 72 1010.0
20260831163032 26 251 0.0 0.0 0.00 0.00 0.00 72 1010.0
20260831161520 26 251 0.0 0.0 0.00 0.00 0.00 73 1010.0
20260831160020 26 251 0.0 0.0 0.00 0.00 0.00 74 1010.0
20260831154514 25 251 0.0 0.0 0.00 0.00 0.00 77 1010.1
20260831153010 24 251 0.0 0.0 0.00 0.00 0.00 78 1010.0
20260831151501 23 251 0.0 0.0 0.00 0.00 0.00 81 1010.0
20260831150057 23 251 0.0 0.0 0.00 0.00 0.00 82 1009.8
20260831144554 22 251 0.0 0.0 0.00 0.00 0.00 83 1009.7
20260831143108 22 251 0.0 0.0 0.00 0.00 0.00 84 1009.6
20260831141609 22 251 0.0 0.0 0.00 0.00 0.00 84 1009.5
20260831140047 22 251 0.0 0.0 0.00 0.00 0.00 84 1009.1
20260831134544 22 251 0.0 0.0 0.00 0.00 0.00 83 1008.9
20260831133038 22 251 0.0 0.0 0.00 0.00 0.00 83 1008.8
20260831131537 22 251 0.0 0.0 0.00 0.00 0.00 83 1008.8
20260831130043 22 251 0.0 0.0 0.00 0.00 0.00 83 1008.7
20260831124539 22 251 0.0 0.0 0.00 0.00 0.00 83 1008.7
20260831123034 22 251 0.0 0.0 0.00 0.00 0.00 84 1008.6
20260831121534 22 251 0.0 0.0 0.00 0.00 0.00 84 1008.6
20260831120034 22 251 0.0 0.0 0.00 0.00 0.00 84 1008.5
20260831114536 22 251 0.0 0.0 0.00 0.00 0.00 84 1008.5
20260831113024 22 251 0.0 0.0 0.00 0.00 0.00 84 1008.6
20260831111607 22 251 0.0 0.0 0.00 0.00 0.00 84 1008.7
20260831110044 22 251 0.0 0.0 0.00 0.00 0.00 84 1008.6
20260831104544 22 251 0.0 0.0 0.00 0.00 0.00 84 1008.8
20260831103043 22 251 0.0 0.0 0.00 0.00 0.00 85 1008.8
20260831101551 22 251 0.0 0.0 0.00 0.00 0.00 85 1008.8
20260831100057 22 251 0.0 0.0 0.00 0.00 0.00 85 1008.8
20260831094547 22 251 0.0 0.0 0.00 0.00 0.00 85 1008.8
20260831093049 23 251 0.0 0.0 0.00 0.00 0.00 85 1008.8
20260831091548 23 251 0.0 0.0 0.00 0.00 0.00 85 1008.8
20260831084542 23 251 0.0 0.0 0.00 0.00 0.00 85 1008.9
20260831083042 23 251 0.0 0.0 0.00 0.00 0.00 86 1009.0
20260831081541 23 251 0.0 0.0 0.00 0.00 0.00 86 1008.9
20260831080039 23 251 0.0 0.0 0.00 0.00 0.00 86 1009.0
20260831074538 23 251 0.0 0.0 0.00 0.00 0.00 86 1009.0
20260831073038 23 251 0.0 0.0 0.00 0.00 0.00 87 1009.0
20260831071537 23 251 0.0 0.0 0.00 0.00 0.00 87 1009.0
20260831070037 23 251 0.0 0.0 0.00 0.00 0.00 87 1009.0
20260831064533 23 251 0.0 0.0 0.00 0.00 0.00 88 1009.1
20260831063033 22 251 0.0 0.0 0.00 0.00 0.00 88 1009.0
20260831061534 22 251 0.0 0.0 0.00 0.00 0.00 88 1009.0
20260831060001 22 251 0.0 0.0 0.00 0.00 0.00 87 1009.0
20260831054501 22 251 0.0 0.0 0.00 0.00 0.00 87 1008.9
20260831053100 22 250 0.0 0.0 0.00 0.00 0.00 86 1008.9
20260831051530 22 251 0.0 0.0 0.00 0.00 0.00 86 1008.9